Regional Weather Roundup
Issued by NWS Cleveland, OH

Home | Current Version | Previous Version | Graphics & Text | Print | Product List | Glossary On
Versions: 1 2 3 4 5 6 7 8 9 10 11 12 13 14 15 16 17 18 19 20 21 22 23 24 25 26 27 28 29 30 31 32 33 34 35 36 37 38 39 40 41 42 43 44 45 46 47 48 49 50
000
ASUS41 KCLE 301102
RWRCLE
OHIO REGIONAL WEATHER ROUNDUP
NATIONAL WEATHER SERVICE CLEVELAND, OH
700 AM EDT SAT AUG 30 2014

NOTE: "FAIR" INDICATES FEW OR NO CLOUDS BELOW 12,000 FEET WITH NO
SIGNIFICANT WEATHER AND/OR OBSTRUCTIONS TO VISIBILITY.

OHZ001>008-015>018-024>027-034-035-043-044-301200-
   NORTHWEST OHIO

CITY           SKY/WX    TMP DP  RH WIND       PRES   REMARKS
DEFIANCE       PTCLDY    72  64  76 S8        29.98R
FINDLAY        CLEAR     67  63  87 S9        30.01R
TOLEDO EXPRESS CLEAR     69  64  84 S7        29.98R
TOLEDO EXEC    CLEAR     69  62  78 S9        29.99S
LIMA           CLEAR     70  65  84 S10       30.02S
$$

OHZ009>014-019>023-028>033-038-089-301200-
   NORTHEAST OHIO

CITY           SKY/WX    TMP DP  RH WIND       PRES   REMARKS
CLE-HOPKINS    PTCLDY    71  59  65 S9        30.06R
CLE-LAKEFRONT  PTCLDY    70  56  61 SE14      30.02R
CUY CO. ARPT   PTCLDY    72  59  64 S14       30.05
LORAIN-ELYRIA  CLEAR     69  58  67 S6        30.04S
ASHTABULA      CLEAR     63  57  81 SE9       30.09R
AKRON-CANTON   PTCLDY    66  56  70 S6        30.09R
WOOSTER        PTCLDY    63  57  81 SE3       30.09R
MANSFIELD      CLEAR     67  61  81 S5        30.07S
YOUNGSTOWN     PTCLDY    63  57  81 SE9       30.10R
$$

OHZ042-051>053-060>062-070>072-077>081-301200-
  SOUTHWEST OHIO

CITY           SKY/WX    TMP DP  RH WIND       PRES   REMARKS
CINC-COVINGTON MOCLDY    71  65  81 S7        30.06R
CINC-LUNKEN    CLEAR     67  66  97 CALM      30.06R
HAMILTON       CLEAR     68  68 100 CALM      30.05S
DAYTON         PTCLDY    72  68  87 S8        30.06R
WRIGHT-PAT AFB CLEAR     69  67  94 CALM      30.06R
DAYTON GENERAL CLEAR     70  67  90 S7        30.05R
WILMINGTON     CLEAR     69  67  93 S6        30.07R
$$

OHZ036-037-039>041-045>050-054>059-063>069-073>076-082>088-301200-
  CENTRAL AND SOUTHEAST OHIO

CITY           SKY/WX    TMP DP  RH WIND       PRES   REMARKS
COLUMBUS       PTCLDY    71  62  73 CALM      30.07R
OSU AIRPORT    CLEAR     70  63  78 S6        30.07R
BOLTON FIELD   PTCLDY    65  64  94 S3        30.07R
RICKENBACK AFB CLEAR     68  60  75 S3        30.06S
NEWARK         MOCLDY    63  61  93 CALM      30.08R
MARION         CLEAR     66  61  84 S6        30.06R
LANCASTER      PTCLDY    69  64  84 SE3       30.08R
ZANESVILLE     CLOUDY    67  61  81 CALM      30.09R
NEW PHILLY     PTCLDY    62  59  90 SE5       30.10R
$$



USA.gov is the U.S. government's official web portal to all federal, state and local government web resources and services.